Location: Krasnoyarskiy Pitomnik
(51.1333°N, 71.6167°E)
Time: 09:38:27
(UTC+00:00)

Altair - Pass Details

Date: 16 April 2024
Orbit: 1501 x 1682 km, 47.2° (Epoch: 17 May)

Event Time Altitude Azimuth Distance (km) Brightness Sun altitude
Rises 17:15:24 0° 255° (WSW) 4,881 10.3 -23.3°
Reaches altitude 10° 17:18:36 10° 253° (WSW) 3,875 9.8 -23.6°
Maximum altitude 17:28:22 70° 173° (S) 1,678 7.4 -24.3°
Drops below altitude 10° 17:37:46 10° 92° (E) 3,734 9.2 -25.0°
Sets 17:40:47 0° 91° (E) 4,697 9.8 -25.2°
